Year,Month,Day,Hour,Minute,Value (Times are PST for temperature in C)
2017,05,03,08,19,11.10
2017,05,03,08,20,11.10
2017,05,03,08,21,11.20
2017,05,03,08,22,11.20
2017,05,03,08,23,11.20
2017,05,03,08,24,11.20
2017,05,03,08,25,11.20
2017,05,03,08,26,11.20
2017,05,03,08,27,11.30
2017,05,03,08,28,11.30
2017,05,03,08,29,11.30
2017,05,03,08,30,11.40
2017,05,03,08,31,11.40
2017,05,03,08,32,11.40
2017,05,03,08,33,11.50
2017,05,03,08,34,11.60
2017,05,03,08,35,11.60
2017,05,03,08,36,11.60
2017,05,03,08,37,11.60
2017,05,03,08,38,11.70
2017,05,03,08,39,11.70
2017,05,03,08,40,11.70
2017,05,03,08,41,11.80
2017,05,03,08,42,11.80
2017,05,03,08,43,11.80
2017,05,03,08,44,11.80
2017,05,03,08,45,11.80
2017,05,03,08,46,11.80
2017,05,03,08,47,11.80
2017,05,03,08,48,11.80
2017,05,03,08,49,11.80
2017,05,03,08,50,11.80
2017,05,03,08,51,11.80
2017,05,03,08,52,11.80
2017,05,03,08,53,11.80
2017,05,03,08,54,11.80
2017,05,03,08,55,11.80
2017,05,03,08,56,11.80
2017,05,03,08,57,11.80
2017,05,03,08,58,11.80
2017,05,03,08,59,11.80
2017,05,03,09,00,11.80
2017,05,03,09,01,11.80
2017,05,03,09,02,11.80
2017,05,03,09,03,11.80
2017,05,03,09,04,11.80
2017,05,03,09,05,11.80
2017,05,03,09,06,11.80
2017,05,03,09,07,11.70
2017,05,03,09,08,11.70
2017,05,03,09,09,11.70
2017,05,03,09,10,11.80
2017,05,03,09,11,11.80
2017,05,03,09,12,11.80
2017,05,03,09,13,11.70
2017,05,03,09,14,11.70
2017,05,03,09,15,11.70
2017,05,03,09,16,11.80
2017,05,03,09,17,11.80
2017,05,03,09,18,11.80
2017,05,03,09,19,11.80
2017,05,03,09,20,11.80
2017,05,03,09,21,11.80
2017,05,03,09,22,11.80
2017,05,03,09,23,11.80
2017,05,03,09,24,11.80
2017,05,03,09,25,11.80
2017,05,03,09,26,11.80
2017,05,03,09,27,11.80
2017,05,03,09,28,11.80
2017,05,03,09,29,11.80
2017,05,03,09,30,11.80
2017,05,03,09,31,11.90
2017,05,03,09,32,11.90
2017,05,03,09,33,11.90
2017,05,03,09,34,12.00
2017,05,03,09,35,12.00
2017,05,03,09,36,12.00
2017,05,03,09,37,12.00
2017,05,03,09,38,12.00
2017,05,03,09,39,12.00
2017,05,03,09,40,12.00
2017,05,03,09,41,12.00
2017,05,03,09,42,12.00
2017,05,03,09,43,12.00
2017,05,03,09,44,12.00
2017,05,03,09,45,12.00
2017,05,03,09,46,11.90
2017,05,03,09,47,11.90
2017,05,03,09,48,11.90
2017,05,03,09,49,12.00
2017,05,03,09,50,12.00
2017,05,03,09,51,12.00
2017,05,03,09,52,12.00
2017,05,03,09,53,12.00
2017,05,03,09,54,12.00
2017,05,03,09,55,11.90
2017,05,03,09,56,11.90
2017,05,03,09,57,11.90
2017,05,03,09,58,11.90
2017,05,03,09,59,11.90
2017,05,03,10,00,11.90
2017,05,03,10,01,11.90
2017,05,03,10,02,12.00
2017,05,03,10,03,12.00
2017,05,03,10,04,11.90
2017,05,03,10,05,11.90
2017,05,03,10,06,11.90
2017,05,03,10,07,12.00
2017,05,03,10,08,12.00
2017,05,03,10,09,12.00
2017,05,03,10,10,12.00
2017,05,03,10,11,12.10
2017,05,03,10,12,12.10
2017,05,03,10,13,12.20
2017,05,03,10,14,12.20
2017,05,03,10,15,12.30
2017,05,03,10,16,12.30
2017,05,03,10,17,12.30
2017,05,03,10,18,12.30
2017,05,03,10,19,12.40
2017,05,03,10,20,12.40
2017,05,03,10,21,12.50
2017,05,03,10,22,12.50
2017,05,03,10,23,12.60
2017,05,03,10,24,12.70
2017,05,03,10,25,12.70
2017,05,03,10,26,12.70
2017,05,03,10,27,12.60
2017,05,03,10,28,12.60
2017,05,03,10,29,12.60
2017,05,03,10,30,12.50
2017,05,03,10,31,12.40
2017,05,03,10,32,12.40
2017,05,03,10,33,12.40
2017,05,03,10,34,12.40
2017,05,03,10,35,12.30
2017,05,03,10,36,12.30
2017,05,03,10,37,12.30
2017,05,03,10,38,12.20
2017,05,03,10,39,12.20
2017,05,03,10,40,12.30
2017,05,03,10,41,12.30
2017,05,03,10,42,12.30
2017,05,03,10,43,12.30
2017,05,03,10,44,12.40
2017,05,03,10,45,12.40
2017,05,03,10,46,12.50
2017,05,03,10,47,12.60
2017,05,03,10,48,12.60
2017,05,03,10,49,12.60
2017,05,03,10,50,12.70
2017,05,03,10,51,12.60
2017,05,03,10,52,12.60
2017,05,03,10,53,12.70
2017,05,03,10,54,12.70
2017,05,03,10,55,12.80
2017,05,03,10,56,12.90
2017,05,03,10,57,13.00
2017,05,03,10,58,13.00
2017,05,03,10,59,13.10
2017,05,03,11,00,13.20
2017,05,03,11,01,13.30
2017,05,03,11,02,13.40
2017,05,03,11,03,13.40
2017,05,03,11,04,13.40
2017,05,03,11,05,13.40
2017,05,03,11,06,13.50
2017,05,03,11,07,13.60
2017,05,03,11,08,13.60
2017,05,03,11,09,13.70
2017,05,03,11,10,13.80
2017,05,03,11,11,13.90
2017,05,03,11,12,14.00
2017,05,03,11,13,14.00
2017,05,03,11,14,14.00
2017,05,03,11,15,14.10
2017,05,03,11,16,14.10
2017,05,03,11,17,14.10
2017,05,03,11,18,14.10
2017,05,03,11,19,14.00
2017,05,03,11,20,13.90
2017,05,03,11,21,13.80
2017,05,03,11,22,13.70
2017,05,03,11,23,13.70
2017,05,03,11,24,13.60
2017,05,03,11,25,13.60
2017,05,03,11,26,13.60
2017,05,03,11,27,13.50
2017,05,03,11,28,13.50
2017,05,03,11,29,13.30
2017,05,03,11,30,13.20
2017,05,03,11,31,13.10
2017,05,03,11,32,13.10
2017,05,03,11,33,13.00
2017,05,03,11,34,13.00
2017,05,03,11,35,13.00
2017,05,03,11,36,13.00
2017,05,03,11,37,13.10
2017,05,03,11,38,13.20
2017,05,03,11,39,13.10
2017,05,03,11,40,13.10
2017,05,03,11,41,13.00
2017,05,03,11,42,13.00
2017,05,03,11,43,12.90
2017,05,03,11,44,12.90
2017,05,03,11,45,12.80
2017,05,03,11,46,12.80
2017,05,03,11,47,12.70
2017,05,03,11,48,12.70
2017,05,03,11,49,12.80
2017,05,03,11,50,12.80
2017,05,03,11,51,12.80
2017,05,03,11,52,12.80
2017,05,03,11,53,12.70
2017,05,03,11,54,12.70
2017,05,03,11,55,12.60
2017,05,03,11,56,12.60
2017,05,03,11,57,12.60
2017,05,03,11,58,12.70
2017,05,03,11,59,12.70
2017,05,03,12,00,12.70
2017,05,03,12,01,12.80
2017,05,03,12,02,12.80
2017,05,03,12,03,12.90
2017,05,03,12,04,12.90
2017,05,03,12,05,13.00
2017,05,03,12,06,13.10
2017,05,03,12,07,13.10
2017,05,03,12,08,13.20
2017,05,03,12,09,13.20
2017,05,03,12,10,13.20
2017,05,03,12,11,13.20
2017,05,03,12,12,13.20
2017,05,03,12,13,13.20
2017,05,03,12,14,13.10
2017,05,03,12,15,13.10
2017,05,03,12,16,13.10
2017,05,03,12,17,13.10
2017,05,03,12,18,13.10
2017,05,03,12,19,13.20
2017,05,03,12,20,13.20
2017,05,03,12,21,13.30
2017,05,03,12,22,13.30
2017,05,03,12,23,13.30
2017,05,03,12,24,13.30
2017,05,03,12,25,13.30
2017,05,03,12,26,13.40
2017,05,03,12,27,13.40
2017,05,03,12,28,13.50
2017,05,03,12,29,13.50
2017,05,03,12,30,13.50
2017,05,03,12,31,13.50
2017,05,03,12,32,13.40
2017,05,03,12,33,13.40
2017,05,03,12,34,13.40
2017,05,03,12,35,13.40
2017,05,03,12,36,13.50
2017,05,03,12,37,13.60
2017,05,03,12,38,13.70
2017,05,03,12,39,13.70
2017,05,03,12,40,13.80
2017,05,03,12,41,14.00
2017,05,03,12,42,14.10
2017,05,03,12,43,14.10
2017,05,03,12,44,14.20
2017,05,03,12,45,14.30
2017,05,03,12,46,14.40
2017,05,03,12,47,14.50
2017,05,03,12,48,14.60
2017,05,03,12,49,14.70
2017,05,03,12,50,14.80
2017,05,03,12,51,14.90
2017,05,03,12,52,15.00
2017,05,03,12,53,15.10
2017,05,03,12,54,15.20
2017,05,03,12,55,15.30
2017,05,03,12,56,15.30
2017,05,03,12,57,15.30
2017,05,03,12,58,15.30
2017,05,03,12,59,15.20
2017,05,03,13,00,15.10
2017,05,03,13,01,15.00
2017,05,03,13,02,15.00
2017,05,03,13,03,15.00
2017,05,03,13,04,14.90
2017,05,03,13,05,14.90
2017,05,03,13,06,14.90
2017,05,03,13,07,14.90
2017,05,03,13,08,14.90
2017,05,03,13,09,14.90
2017,05,03,13,10,14.90
2017,05,03,13,11,15.00
2017,05,03,13,12,15.00
2017,05,03,13,13,15.10
2017,05,03,13,14,15.20
2017,05,03,13,15,15.20
2017,05,03,13,16,15.20
2017,05,03,13,17,15.30
2017,05,03,13,18,15.30
2017,05,03,13,19,15.30
2017,05,03,13,20,15.30
2017,05,03,13,21,15.30
2017,05,03,13,22,15.30
2017,05,03,13,23,15.30
2017,05,03,13,24,15.30
2017,05,03,13,25,15.30
2017,05,03,13,26,15.30
2017,05,03,13,27,15.30
2017,05,03,13,28,15.20
2017,05,03,13,29,15.20
2017,05,03,13,30,15.20
2017,05,03,13,31,15.10
2017,05,03,13,32,15.10
2017,05,03,13,33,15.00
2017,05,03,13,34,15.00
2017,05,03,13,35,14.90
2017,05,03,13,36,14.80
2017,05,03,13,37,14.80
2017,05,03,13,38,14.70
2017,05,03,13,39,14.70
2017,05,03,13,40,14.70
2017,05,03,13,41,14.60
2017,05,03,13,42,14.60
2017,05,03,13,43,14.70
2017,05,03,13,44,14.70
2017,05,03,13,45,14.70
2017,05,03,13,46,14.70
2017,05,03,13,47,14.80
2017,05,03,13,48,14.80
2017,05,03,13,49,14.80
2017,05,03,13,50,14.80
2017,05,03,13,51,14.80
2017,05,03,13,52,14.80
2017,05,03,13,53,14.80
2017,05,03,13,54,14.80
2017,05,03,13,55,14.80
2017,05,03,13,56,14.80
2017,05,03,13,57,14.80
2017,05,03,13,58,14.80
2017,05,03,13,59,14.70
2017,05,03,14,00,14.60
2017,05,03,14,01,14.60
2017,05,03,14,02,14.50
2017,05,03,14,03,14.50
2017,05,03,14,04,14.50
2017,05,03,14,05,14.50
2017,05,03,14,06,14.50
2017,05,03,14,07,14.50
2017,05,03,14,08,14.50
2017,05,03,14,09,14.50
2017,05,03,14,10,14.60
2017,05,03,14,11,14.60
2017,05,03,14,12,14.60
2017,05,03,14,13,14.60
2017,05,03,14,14,14.60
2017,05,03,14,15,14.70
2017,05,03,14,16,14.80
2017,05,03,14,17,14.80
2017,05,03,14,18,14.80
2017,05,03,14,19,14.90
2017,05,03,14,20,15.00
2017,05,03,14,21,15.00
2017,05,03,14,22,15.10
2017,05,03,14,23,15.20
2017,05,03,14,24,15.20
2017,05,03,14,25,15.30
2017,05,03,14,26,15.30
2017,05,03,14,27,15.30
2017,05,03,14,28,15.40
2017,05,03,14,29,15.40
2017,05,03,14,30,15.50
2017,05,03,14,31,15.60
2017,05,03,14,32,15.60
2017,05,03,14,33,15.60
2017,05,03,14,34,15.70
2017,05,03,14,35,15.70
2017,05,03,14,36,15.80
2017,05,03,14,37,15.80
2017,05,03,14,38,15.80
2017,05,03,14,39,15.80
2017,05,03,14,40,15.80
2017,05,03,14,41,15.80
2017,05,03,14,42,15.80
2017,05,03,14,43,15.80
2017,05,03,14,44,15.80
2017,05,03,14,45,15.80
2017,05,03,14,46,15.70
2017,05,03,14,47,15.70
2017,05,03,14,48,15.60
2017,05,03,14,49,15.60
2017,05,03,14,50,15.50
2017,05,03,14,51,15.50
2017,05,03,14,52,15.60
2017,05,03,14,53,15.60
2017,05,03,14,54,15.50
2017,05,03,14,55,15.50
2017,05,03,14,56,15.50
2017,05,03,14,57,15.50
2017,05,03,14,58,15.50
2017,05,03,14,59,15.50
2017,05,03,15,00,15.60
2017,05,03,15,01,15.60
2017,05,03,15,02,15.70
2017,05,03,15,03,15.70
2017,05,03,15,04,15.80
2017,05,03,15,05,15.80
2017,05,03,15,06,15.90
2017,05,03,15,07,15.90
2017,05,03,15,08,15.90
2017,05,03,15,09,16.00
2017,05,03,15,10,16.10
2017,05,03,15,11,16.10
2017,05,03,15,12,16.10
2017,05,03,15,13,16.10
2017,05,03,15,14,16.00
2017,05,03,15,15,16.00
2017,05,03,15,16,16.10
2017,05,03,15,17,16.10
2017,05,03,15,18,16.10
2017,05,03,15,19,16.10
2017,05,03,15,20,16.10
2017,05,03,15,21,16.10
2017,05,03,15,22,16.10
2017,05,03,15,23,16.10
2017,05,03,15,24,16.20
2017,05,03,15,25,16.20
2017,05,03,15,26,16.30
2017,05,03,15,27,16.30
2017,05,03,15,28,16.40
2017,05,03,15,29,16.40
2017,05,03,15,30,16.40
2017,05,03,15,31,16.50
2017,05,03,15,32,16.60
2017,05,03,15,33,16.60
2017,05,03,15,34,16.60
2017,05,03,15,35,16.60
2017,05,03,15,36,16.70
2017,05,03,15,37,16.70
2017,05,03,15,38,16.70
2017,05,03,15,39,16.70
2017,05,03,15,40,16.70
2017,05,03,15,41,16.70
2017,05,03,15,42,16.70
2017,05,03,15,43,16.60
2017,05,03,15,44,16.60
2017,05,03,15,45,16.50
2017,05,03,15,46,16.50
2017,05,03,15,47,16.60
2017,05,03,15,48,16.60
2017,05,03,15,49,16.50
2017,05,03,15,50,16.40
2017,05,03,15,51,16.40
2017,05,03,15,52,16.40
2017,05,03,15,53,16.30
2017,05,03,15,54,16.30
2017,05,03,15,55,16.30
2017,05,03,15,56,16.40
2017,05,03,15,57,16.40
2017,05,03,15,58,16.40
2017,05,03,15,59,16.40
2017,05,03,16,00,16.40
2017,05,03,16,01,16.40
2017,05,03,16,02,16.30
2017,05,03,16,03,16.20
2017,05,03,16,04,16.20
2017,05,03,16,05,16.20
2017,05,03,16,06,16.10
2017,05,03,16,07,16.10
2017,05,03,16,08,16.10
2017,05,03,16,09,16.10
2017,05,03,16,10,16.20
2017,05,03,16,11,16.20
2017,05,03,16,12,16.20
2017,05,03,16,13,16.20
2017,05,03,16,14,16.20
2017,05,03,16,15,16.30
2017,05,03,16,16,16.30
2017,05,03,16,17,16.30
2017,05,03,16,18,16.30
2017,05,03,16,19,16.30
2017,05,03,16,20,16.30
2017,05,03,16,21,16.30
2017,05,03,16,22,16.30
2017,05,03,16,23,16.30
2017,05,03,16,24,16.40
2017,05,03,16,25,16.40
2017,05,03,16,26,16.30
2017,05,03,16,27,16.30
2017,05,03,16,28,16.20
2017,05,03,16,29,16.20
2017,05,03,16,30,16.20
2017,05,03,16,31,16.30
2017,05,03,16,32,16.40
2017,05,03,16,33,16.40
2017,05,03,16,34,16.30
2017,05,03,16,35,16.30
2017,05,03,16,36,16.30
2017,05,03,16,37,16.20
2017,05,03,16,38,16.10
2017,05,03,16,39,16.10
2017,05,03,16,40,16.10
2017,05,03,16,41,16.10
2017,05,03,16,42,16.10
2017,05,03,16,43,16.10
2017,05,03,16,44,16.10
2017,05,03,16,45,16.10
2017,05,03,16,46,16.00
2017,05,03,16,47,15.90
2017,05,03,16,48,15.90
2017,05,03,16,49,15.90
2017,05,03,16,50,15.90
2017,05,03,16,51,16.00
2017,05,03,16,52,16.10
2017,05,03,16,53,16.10
2017,05,03,16,54,16.10
2017,05,03,16,55,16.00
2017,05,03,16,56,16.00
2017,05,03,16,57,16.10
2017,05,03,16,58,16.10
2017,05,03,16,59,16.10
2017,05,03,17,00,16.10
2017,05,03,17,01,16.00
2017,05,03,17,02,15.90
2017,05,03,17,03,16.00
2017,05,03,17,04,15.90
2017,05,03,17,05,15.90
2017,05,03,17,06,15.80
2017,05,03,17,07,15.80
2017,05,03,17,08,15.80
2017,05,03,17,09,15.80
2017,05,03,17,10,15.80
2017,05,03,17,11,15.80
2017,05,03,17,12,15.80
2017,05,03,17,13,15.90
2017,05,03,17,14,15.90
2017,05,03,17,15,15.90
2017,05,03,17,16,16.00
2017,05,03,17,17,16.10
2017,05,03,17,18,16.10
2017,05,03,17,19,16.10
2017,05,03,17,20,16.10
2017,05,03,17,21,16.10
2017,05,03,17,22,16.00
2017,05,03,17,23,15.90
2017,05,03,17,24,15.90
2017,05,03,17,25,15.80
2017,05,03,17,26,15.80
2017,05,03,17,27,15.70
2017,05,03,17,28,15.70
2017,05,03,17,29,15.60
2017,05,03,17,30,15.60
2017,05,03,17,31,15.60
2017,05,03,17,32,15.60
2017,05,03,17,33,15.70
2017,05,03,17,34,15.70
2017,05,03,17,35,15.60
2017,05,03,17,36,15.60
2017,05,03,17,37,15.60
2017,05,03,17,38,15.60
2017,05,03,17,39,15.70
2017,05,03,17,40,15.60
2017,05,03,17,41,15.60
2017,05,03,17,42,15.60
2017,05,03,17,43,15.60
2017,05,03,17,44,15.60
2017,05,03,17,45,15.60
2017,05,03,17,46,15.60
2017,05,03,17,47,15.60
2017,05,03,17,48,15.50
2017,05,03,17,49,15.50
2017,05,03,17,50,15.50
2017,05,03,17,51,15.50
2017,05,03,17,52,15.50
2017,05,03,17,53,15.50
2017,05,03,17,54,15.50
2017,05,03,17,55,15.50
2017,05,03,17,56,15.50
2017,05,03,17,57,15.50
2017,05,03,17,58,15.50
2017,05,03,17,59,15.60
2017,05,03,18,00,15.60
2017,05,03,18,01,15.60
2017,05,03,18,02,15.50
2017,05,03,18,03,15.50
2017,05,03,18,04,15.50
2017,05,03,18,05,15.50
2017,05,03,18,06,15.50
2017,05,03,18,07,15.50
2017,05,03,18,08,15.50
2017,05,03,18,09,15.50
2017,05,03,18,10,15.50
2017,05,03,18,11,15.50
2017,05,03,18,12,15.50
2017,05,03,18,13,15.60
2017,05,03,18,14,15.60
2017,05,03,18,15,15.60
2017,05,03,18,16,15.60
2017,05,03,18,17,15.60
2017,05,03,18,18,15.60
2017,05,03,18,19,15.60
2017,05,03,18,20,15.60
2017,05,03,18,21,15.50
2017,05,03,18,22,15.50
2017,05,03,18,23,15.40
2017,05,03,18,24,15.30
2017,05,03,18,25,15.30
2017,05,03,18,26,15.20
2017,05,03,18,27,15.20
2017,05,03,18,28,15.20
2017,05,03,18,29,15.20
2017,05,03,18,30,15.20
2017,05,03,18,31,15.10
2017,05,03,18,32,15.10
2017,05,03,18,33,15.10
2017,05,03,18,34,15.10
2017,05,03,18,35,15.00
2017,05,03,18,36,15.00
2017,05,03,18,37,14.90
2017,05,03,18,38,14.90
2017,05,03,18,39,14.90
2017,05,03,18,40,14.90
2017,05,03,18,41,14.90
2017,05,03,18,42,14.90
2017,05,03,18,43,14.90
2017,05,03,18,44,14.90
2017,05,03,18,45,14.90
2017,05,03,18,46,14.90
2017,05,03,18,47,14.90
2017,05,03,18,48,14.90
2017,05,03,18,49,14.90
2017,05,03,18,50,14.80
2017,05,03,18,51,14.80
2017,05,03,18,52,14.80
2017,05,03,18,53,14.80
2017,05,03,18,54,14.80
2017,05,03,18,55,14.80
2017,05,03,18,56,14.70
2017,05,03,18,57,14.70
2017,05,03,18,58,14.70
2017,05,03,18,59,14.70
2017,05,03,19,00,14.70
2017,05,03,19,01,14.70
2017,05,03,19,02,14.70
2017,05,03,19,03,14.70
2017,05,03,19,04,14.60
2017,05,03,19,05,14.60
2017,05,03,19,06,14.60
2017,05,03,19,07,14.60
2017,05,03,19,08,14.60
2017,05,03,19,09,14.60
2017,05,03,19,10,14.60
2017,05,03,19,11,14.60
2017,05,03,19,12,14.60
2017,05,03,19,13,14.60
2017,05,03,19,14,14.60
2017,05,03,19,15,14.50
2017,05,03,19,16,14.50
2017,05,03,19,17,14.50
2017,05,03,19,18,14.40
2017,05,03,19,19,14.40
2017,05,03,19,20,14.40
2017,05,03,19,21,14.40
2017,05,03,19,22,14.40
2017,05,03,19,23,14.40
2017,05,03,19,24,14.40
2017,05,03,19,25,14.40
2017,05,03,19,26,14.40
2017,05,03,19,27,14.40
2017,05,03,19,28,14.40
2017,05,03,19,29,14.40
2017,05,03,19,30,14.40
2017,05,03,19,31,14.40
2017,05,03,19,32,14.40
2017,05,03,19,33,14.30
2017,05,03,19,34,14.40
2017,05,03,19,35,14.40
2017,05,03,19,36,14.40
2017,05,03,19,37,14.40
2017,05,03,19,38,14.40
2017,05,03,19,39,14.40
2017,05,03,19,40,14.40
2017,05,03,19,41,14.40
2017,05,03,19,42,14.40
2017,05,03,19,43,14.40
2017,05,03,19,44,14.40
2017,05,03,19,45,14.40
2017,05,03,19,46,14.40
2017,05,03,19,47,14.40
2017,05,03,19,48,14.40
2017,05,03,19,49,14.40
2017,05,03,19,50,14.40
2017,05,03,19,51,14.40
2017,05,03,19,52,14.40
2017,05,03,19,53,14.40
2017,05,03,19,54,14.40
